Location: Unspecified
(0.0000°N, 0.0000°E)
Time: 10:31:02
(UTC+00:00)

deb Explorer IX - Pass Details

Date: 17 December 2018
Orbit: 538 x 1115 km, 38.8° (Epoch: 17 January)

Event Time Altitude Azimuth Distance (km) Brightness Sun altitude
Rises 13:23:10 0° 225° (SW) 3,715 ? 58.5°
Reaches altitude 10° 13:26:01 10° 223° (SW) 2,682 ? 58.0°
Maximum altitude 13:32:25 71° 139° (SE) 893 ? 56.9°
Drops below altitude 10° 13:37:46 10° 56° (NE) 2,265 ? 56.0°
Sets 13:40:01 0° 54° (NE) 3,101 ? 55.6°
